Mobile, AL

9:16 PM CDT on June 23, 2017 (GMT -0500)
Mobile Regional

Weather History for KMOB - February, 2013

Change the Weather History Date:

Wednesday, February 27, 2013

  Actual Average Record
Temperature  
Mean Temperature 55 °F 56 °F  
Max Temperature 65 °F 67 °F 82 °F (1981)
Min Temperature 44 °F 46 °F 24 °F (2002)
Degree Days  
Heating Degree Days 10 9  
Month to date heating degree days 248 313  
Since 1 July heating degree days 1159 1434  
Cooling Degree Days 0 0  
Month to date cooling degree days 1 0  
Year to date cooling degree days 27 7  
Growing Degree Days 4 (Base 50)    
Moisture  
Dew Point 41 °F    
Average Humidity 60    
Maximum Humidity 86    
Minimum Humidity 34    
Precipitation  
Precipitation 0.00 in 0.18 in 2.05 in (1902)
Month to date precipitation 11.32 4.93  
Year to date precipitation 14.19 10.58  
Snow  
Snow 0.00 in 0.00 in - ()
Month to date snowfall 0.0 0.1  
Since 1 July snowfall 0.0 0.1  
Snow Depth 0.00 in    
Sea Level Pressure  
Sea Level Pressure 29.98 in    
Wind  
Wind Speed 5 mph (SW)    
Max Wind Speed 16 mph    
Max Gust Speed 20 mph    
Visibility 10 miles    
Events      
T = Trace of Precipitation, MM = Missing Value Source: NWS Daily Summary

Daily Weather History Graph

Daily Weather History Graph

Search for Another Location

Airport or City:

Trip Planner

Search our weather history database for the weather conditions in past years. The results will help you decide how hot, cold, wet, or windy it might be!

Date:

Astronomy

Feb. 27, 2013 Rise Set
Actual Time 6:21 AM CST 5:50 PM CST
Civil Twilight 5:57 AM CST 6:14 PM CST
Nautical Twilight 5:29 AM CST 6:42 PM CST
Astronomical Twilight 5:01 AM CST 7:10 PM CST
Moon 7:57 PM CST (2/27) 7:07 AM CST (2/27)
Length of Visible Light 12h 17m
Length of Day
11h 29m
Waning Gibbous, 96% of the Moon is Illuminated
Feb 27
Waning Gibbous
Mar 4
Last Quarter
Mar 11
New
Mar 19
First Quarter
Mar 27
Full

Hourly Weather History & Observations

Time (CST) Temp. Windchill Dew Point Humidity Pressure Visibility Wind Dir Wind Speed Gust Speed Precip Events Conditions
12:56 AM 48.0 °F - 41.0 °F 77% 29.94 in 10.0 mi Calm Calm - N/A   Clear
1:56 AM 48.2 °F - 41.0 °F 76% 29.93 in 10.0 mi Calm Calm - N/A   Clear
2:56 AM 46.4 °F - 42.8 °F 87% 29.93 in 10.0 mi Calm Calm - N/A   Clear
3:56 AM 46.4 °F 45.2 °F 39.2 °F 76% 29.95 in 10.0 mi WNW 3.5 mph - N/A   Clear
4:56 AM 46.0 °F - 39.0 °F 76% 29.95 in 10.0 mi Calm Calm - N/A   Clear
5:56 AM 45.0 °F - 39.9 °F 82% 29.97 in 10.0 mi Calm Calm - N/A   Overcast
6:56 AM 44.1 °F - 39.9 °F 85% 29.98 in 10.0 mi Calm Calm - N/A   Overcast
7:56 AM 46.9 °F - 41.0 °F 80% 30.00 in 10.0 mi SSW 4.6 mph - N/A   Overcast
8:56 AM 50.0 °F - 39.9 °F 68% 30.02 in 10.0 mi Calm Calm - N/A   Overcast
9:56 AM 53.1 °F - 37.9 °F 57% 30.03 in 10.0 mi South 3.5 mph - N/A   Overcast
10:56 AM 57.0 °F - 37.0 °F 47% 30.04 in 10.0 mi Variable 5.8 mph - N/A   Overcast
11:56 AM 61.0 °F - 37.0 °F 41% 30.02 in 10.0 mi SW 8.1 mph - N/A   Mostly Cloudy
12:56 PM 64.0 °F - 37.9 °F 38% 29.98 in 10.0 mi Variable 3.5 mph - N/A   Mostly Cloudy
1:56 PM 64.9 °F - 35.1 °F 33% 29.96 in 10.0 mi SW 9.2 mph 16.1 mph N/A   Mostly Cloudy
2:56 PM 64.9 °F - 39.0 °F 39% 29.95 in 10.0 mi SSW 10.4 mph - N/A   Scattered Clouds
3:56 PM 63.0 °F - 39.0 °F 41% 29.94 in 10.0 mi SSW 13.8 mph - N/A   Scattered Clouds
4:56 PM 61.0 °F - 39.9 °F 46% 29.95 in 10.0 mi SSW 11.5 mph - N/A   Scattered Clouds
5:56 PM 55.9 °F - 42.1 °F 60% 29.97 in 10.0 mi SW 9.2 mph - N/A   Partly Cloudy
6:56 PM 53.1 °F - 43.0 °F 69% 29.97 in 10.0 mi SSW 3.5 mph - N/A   Partly Cloudy
7:56 PM 51.1 °F - 44.1 °F 77% 29.97 in 10.0 mi SSW 3.5 mph - N/A   Partly Cloudy
8:56 PM 51.1 °F - 45.0 °F 80% 29.98 in 10.0 mi SSW 6.9 mph - N/A   Clear
9:56 PM 48.9 °F - 45.0 °F 86% 29.99 in 10.0 mi West 3.5 mph - N/A   Clear
10:56 PM 48.0 °F - 45.0 °F 89% 29.99 in 10.0 mi NW 3.5 mph - N/A   Partly Cloudy
11:56 PM 48.2 °F - 44.6 °F 87% 30.00 in 10.0 mi NNW 6.9 mph - N/A   Clear